Starlink 1196

decayed
NORAD ID: 45103 Int'l Des: 2020-006 Owner: SPXS Country: US Constellation: starlink
LEOCIRCULAR
Group

About Starlink 1196

Description loading...

Altitude History

Altitude vs Time

uPlot chart will show altitude changes over time

Two-Line Element Set

1 45103U 20006BM 24238.56977822 .17340107 12036-4 34588-2 0 9995
2 45103 53.0391 138.2594 0006174 228.0315 198.7881 16.30664796254323
Epoch: Aug 25, 2024 • Age: 10062 hours

Current Status

Position data unavailable
Launch Date Jan 29, 2020
Age 5.7 years
Decay Date Aug 25, 2024
Type internet

Technical Details

Classification Payload
Mass 260.00 kg
Dry Mass 248.00 kg
Total Mass 260.00 kg
Length 0.20 m
Diameter 2.80 m
Span 9.00 m
Shape Box + pan
Manufacturer SPXS
Bus Type Starlink
Phase Status Unknown Transfer Status
Owner/State SPXS/US

Large Constellations

Loading constellations...